DW8522 Weather Reports


Display with metric or nautical units.
time (UTC)temp
F
wind
direction
speed
MPH
gust
MPH
rain 1hr
in
rain 24hr
in
rain mn
in
humidity
%
barometer
mb
20260903071509 56 224 0.0 3.0 0.00 0.00 0.00 87 1017.9
20260903070009 56 214 2.0 4.0 0.00 0.00 0.00 87 1017.9
20260903064508 56 164 1.0 4.0 0.00 0.00 0.00 85 1017.8
20260903063007 57 294 1.0 7.0 0.00 0.00 0.00 81 1017.8
20260903061506 58 245 4.0 8.0 0.00 0.00 0.00 79 1017.7
20260903060005 59 238 3.0 8.0 0.00 0.00 0.00 76 1017.7
20260903054505 60 250 3.0 8.0 0.00 0.00 0.00 72 1017.6
20260903053004 60 252 3.0 7.0 0.00 0.00 0.00 72 1017.5
20260903051503 61 193 4.0 11.0 0.00 0.00 0.00 72 1017.4
20260903050003 62 250 6.0 11.0 0.00 0.00 0.00 70 1017.3
20260903044507 62 201 4.0 10.0 0.00 0.00 0.00 69 1017.4
20260903043000 62 257 3.0 9.0 0.00 0.00 0.00 70 1017.5
20260903041615 62 198 4.0 11.0 0.00 0.00 0.00 69 1017.5
20260903040059 63 248 4.0 14.0 0.00 0.00 0.00 69 1017.5
20260903034602 63 221 4.0 14.0 0.00 0.00 0.00 68 1017.6
20260903033057 64 281 3.0 9.0 0.00 0.00 0.00 68 1017.5
20260903031556 65 215 3.0 11.0 0.00 0.00 0.00 66 1017.6
20260903030055 65 313 2.0 7.0 0.00 0.00 0.00 66 1017.7
20260903024554 65 144 3.0 9.0 0.00 0.00 0.00 66 1017.8
20260903023115 64 252 3.0 13.0 0.00 0.00 0.00 65 1017.9
20260903021550 64 224 2.0 10.0 0.00 0.00 0.00 62 1017.9
20260903020055 64 197 4.0 13.0 0.00 0.00 0.00 62 1018.0
20260903014548 66 266 5.0 10.0 0.00 0.00 0.00 58 1018.2
20260903013049 65 245 5.0 10.0 0.00 0.00 0.00 61 1018.3
20260903011544 63 116 4.0 12.0 0.00 0.00 0.00 65 1018.4
20260903010041 64 229 3.0 9.0 0.00 0.00 0.00 63 1018.7
20260903004540 66 295 3.0 7.0 0.00 0.00 0.00 63 1018.8
20260903003038 65 142 4.0 9.0 0.00 0.00 0.00 62 1019.1
20260903001536 64 215 3.0 8.0 0.00 0.00 0.00 68 1019.1
20260903000036 63 287 3.0 8.0 0.00 0.00 0.00 66 1019.3
20260902234534 64 152 3.0 9.0 0.00 0.00 0.00 64 1019.6
20260902233030 63 172 1.0 5.0 0.00 0.00 0.00 72 1019.7
20260902231530 61 177 1.0 6.0 0.00 0.00 0.00 75 1019.8
20260902230026 60 152 2.0 7.0 0.00 0.00 0.00 74 1020.1
20260902224524 60 158 1.0 7.0 0.00 0.00 0.00 76 1020.1
20260902223029 60 285 2.0 4.0 0.00 0.00 0.00 77 1020.3
20260902221527 60 113 1.0 5.0 0.00 0.00 0.00 77 1020.4
20260902220029 61 291 2.0 6.0 0.00 0.00 0.00 77 1020.3
20260902214520 61 102 1.0 6.0 0.00 0.00 0.00 79 1020.3
20260902213017 59 158 0.0 5.0 0.00 0.00 0.00 81 1020.1
20260902211514 58 108 1.0 3.0 0.00 0.00 0.00 82 1020.1
20260902210018 57 324 1.0 6.0 0.00 0.00 0.00 84 1020.3
20260902204511 57 166 1.0 8.0 0.00 0.00 0.00 85 1020.3
20260902203007 56 271 1.0 4.0 0.00 0.00 0.00 86 1020.4
20260902201516 55 181 1.0 4.0 0.00 0.00 0.00 85 1020.4
20260902200005 54 328 1.0 4.0 0.00 0.00 0.00 84 1020.4
20260902194503 54 120 0.0 2.0 0.00 0.00 0.00 83 1020.3
20260902193002 54 163 0.0 1.0 0.00 0.00 0.00 82 1020.1
20260902191601 54 198 0.0 3.0 0.00 0.00 0.00 82 1019.9
20260902190059 53 161 0.0 3.0 0.00 0.00 0.00 82 1019.7
20260902184558 53 210 0.0 4.0 0.00 0.00 0.00 82 1019.6
20260902183057 53 146 2.0 5.0 0.00 0.00 0.00 83 1019.4
20260902181557 53 195 0.0 2.0 0.00 0.00 0.00 83 1019.2
20260902180057 52 176 0.0 2.0 0.00 0.00 0.00 83 1019.3
20260902174555 53 181 0.0 3.0 0.00 0.00 0.00 82 1019.2
20260902173055 52 139 0.0 2.0 0.00 0.00 0.00 83 1019.2
20260902171605 52 180 0.0 6.0 0.00 0.00 0.00 84 1019.2
20260902170053 52 134 0.0 1.0 0.00 0.00 0.00 84 1019.0
20260902164551 52 131 0.0 1.0 0.00 0.00 0.00 85 1019.2
20260902163053 52 131 0.0 1.0 0.00 0.00 0.00 86 1019.0
20260902161550 53 131 0.0 1.0 0.00 0.00 0.00 86 1019.2
20260902160104 53 157 0.0 1.0 0.00 0.00 0.00 85 1019.1
20260902154555 54 156 0.0 4.0 0.00 0.00 0.00 85 1019.0
20260902153047 54 347 0.0 3.0 0.00 0.00 0.00 85 1018.8
20260902151543 54 279 0.0 3.0 0.00 0.00 0.00 85 1019.1
20260902150042 53 287 2.0 5.0 0.00 0.00 0.00 87 1019.3
20260902144541 54 146 0.0 1.0 0.00 0.00 0.00 85 1019.4
20260902143044 54 116 0.0 1.0 0.00 0.00 0.00 84 1019.5
20260902141537 54 178 0.0 4.0 0.00 0.00 0.00 83 1019.5
20260902140038 55 153 1.0 4.0 0.00 0.00 0.00 82 1019.7
20260902134539 55 166 1.0 5.0 0.00 0.00 0.00 81 1019.4
20260902133043 55 176 1.0 5.0 0.00 0.00 0.00 82 1019.5
20260902131535 55 251 3.0 6.0 0.00 0.00 0.00 83 1019.4
20260902130031 55 130 0.0 4.0 0.00 0.00 0.00 84 1019.5
20260902124529 55 240 2.0 7.0 0.00 0.00 0.00 83 1019.5
20260902123030 55 178 1.0 8.0 0.00 0.00 0.00 83 1019.4
20260902121527 55 186 2.0 6.0 0.00 0.00 0.00 83 1019.3
20260902120033 55 176 1.0 6.0 0.00 0.00 0.00 83 1019.1
20260902114523 55 174 0.0 5.0 0.00 0.00 0.00 84 1019.2
20260902113024 55 191 1.0 7.0 0.00 0.00 0.00 84 1019.0
20260902111538 55 195 1.0 4.0 0.00 0.00 0.00 84 1018.9
20260902110048 56 228 2.0 6.0 0.00 0.00 0.00 84 1019.1
20260902104527 56 293 2.0 5.0 0.00 0.00 0.00 84 1019.1
20260902103020 56 237 2.0 6.0 0.00 0.00 0.00 83 1018.9
20260902101521 56 200 1.0 9.0 0.00 0.00 0.00 83 1018.8
20260902100020 56 205 2.0 6.0 0.00 0.00 0.00 83 1018.8
20260902094521 56 197 1.0 6.0 0.00 0.00 0.00 83 1018.9
20260902093018 56 226 1.0 8.0 0.00 0.00 0.00 83 1018.8
20260902091519 56 200 2.0 7.0 0.00 0.00 0.00 83 1018.9
20260902090018 56 211 2.0 10.0 0.00 0.00 0.00 84 1018.8
20260902084516 56 188 2.0 8.0 0.00 0.00 0.00 85 1018.9
20260902083017 56 229 3.0 8.0 0.00 0.00 0.00 83 1018.7
20260902081516 57 216 2.0 7.0 0.00 0.00 0.00 79 1018.6
20260902080016 57 267 1.0 4.0 0.00 0.00 0.00 79 1018.5
20260902074515 58 205 1.0 6.0 0.00 0.00 0.00 79 1018.5
20260902073014 58 231 2.0 7.0 0.00 0.00 0.00 78 1018.6